Weather History for Asheville, NC

Change the Weather History Date:

Wednesday, January 19, 2011

  Actual Average Record
Temperature  
Mean Temperature 40 °F 37 °F  
Max Temperature 47 °F 47 °F 70 °F (1974)
Min Temperature 33 °F 27 °F -5 °F (1994)
Degree Days  
Heating Degree Days 25 28  
Month to date heating degree days 626 532  
Since 1 July heating degree days 2494 2193  
Cooling Degree Days 0 0  
Month to date cooling degree days 0 0  
Year to date cooling degree days 0 0  
Moisture  
Dew Point 36 °F    
Average Humidity 80    
Maximum Humidity 100    
Minimum Humidity 60    
Precipitation  
Precipitation 0.00 in 0.13 in 1.38 in (1950)
Month to date precipitation 1.30 2.21  
Year to date precipitation 1.30 2.21  
Snow  
Snow 0.00 in 0.10 in 3.50 in (1893)
Month to date snowfall 9.4 2.5  
Since 1 July snowfall 20.2 3.5  
Snow Depth 0.00 in    
Sea Level Pressure  
Sea Level Pressure 29.87 in    
Wind  
Wind Speed 11 mph (NNW)    
Max Wind Speed 22 mph    
Max Gust Speed 28 mph    
Visibility 8 miles    
Events Fog    
T = Trace of Precipitation, MM = Missing Value Source: NWS Daily Summary

Daily Weather History Graph

Daily Weather History Graph

Search for Another Location

Airport:

Trip Planner

Search our weather history database for the weather conditions in past years. The results will help you decide how hot, cold, wet, or windy it might be!

Date:

Astronomy

Jan. 19, 2011 Rise Set
Actual Time 7:37 AM EST 5:44 PM EST
Civil Twilight 7:09 AM EST 6:12 PM EST
Nautical Twilight 6:38 AM EST 6:43 PM EST
Astronomical Twilight 6:08 AM EST 7:13 PM EST
Moon 5:50 PM EST (1/19) 7:15 AM EST (1/19)
Length of Visible Light 11h 02m
Length of Day
10h 07m
Full, 100% of the Moon is Illuminated
Jan 19
Full
Jan 19
Full
Jan 26
Last Quarter
Feb 2
New
Feb 11
First Quarter

Hourly Weather History & Observations

Time (EST) Temp. Windchill Dew Point Humidity Pressure Visibility Wind Dir Wind Speed Gust Speed Precip Events Conditions
12:06 AM 37.4 °F - 37.4 °F 100% 29.80 in 2.0 mi Calm Calm - N/A   Overcast
12:10 AM 37.4 °F - 37.4 °F 100% 29.80 in 1.2 mi Calm Calm - N/A   Overcast
12:20 AM 37.4 °F - 37.4 °F 100% 29.80 in 0.8 mi Calm Calm - N/A   Overcast
12:37 AM 37.4 °F - 37.4 °F 100% 29.80 in 0.5 mi Calm Calm - N/A Fog Fog
12:51 AM 37.4 °F - 37.4 °F 100% 29.80 in 0.2 mi Calm Calm - N/A Fog Fog
12:54 AM 37.0 °F - 37.0 °F 100% 29.81 in 0.2 mi Calm Calm - N/A Fog Fog
1:22 AM 37.4 °F - 37.4 °F 100% 29.80 in 0.5 mi Calm Calm - N/A Fog Fog
1:32 AM 37.4 °F - 37.4 °F 100% 29.79 in 0.2 mi Calm Calm - N/A Fog Fog
1:54 AM 37.9 °F - 37.0 °F 97% 29.79 in 0.8 mi Calm Calm - N/A   Overcast
1:59 AM 37.4 °F - 37.4 °F 100% 29.79 in 1.5 mi Calm Calm - N/A   Overcast
2:04 AM 39.2 °F - 37.4 °F 93% 29.79 in 3.0 mi Calm Calm - N/A   Overcast
2:46 AM 39.2 °F 35.9 °F 39.2 °F 100% 29.80 in 7.0 mi North 4.6 mph - N/A   Overcast
2:54 AM 39.9 °F 37.8 °F 39.0 °F 97% 29.80 in 7.0 mi Variable 3.5 mph - N/A   Overcast
3:54 AM 39.0 °F 32.3 °F 37.9 °F 96% 29.78 in 10.0 mi NNW 10.4 mph - N/A   Mostly Cloudy
4:07 AM 37.4 °F 29.8 °F 37.4 °F 100% 29.78 in 9.0 mi NW 11.5 mph - N/A   Mostly Cloudy
4:54 AM 39.9 °F 33.9 °F 39.0 °F 97% 29.81 in 10.0 mi NW 9.2 mph - N/A   Overcast
5:23 AM 39.2 °F 33.0 °F 39.2 °F 100% 29.80 in 10.0 mi NNW 9.2 mph - N/A   Overcast
5:30 AM 39.2 °F 33.6 °F 39.2 °F 100% 29.80 in 10.0 mi NNW 8.1 mph - N/A   Overcast
5:54 AM 39.9 °F 36.7 °F 39.0 °F 97% 29.83 in 10.0 mi North 4.6 mph - N/A   Overcast
6:54 AM 37.9 °F 32.7 °F 37.0 °F 97% 29.83 in 10.0 mi NW 6.9 mph - N/A   Overcast
7:19 AM 39.2 °F 34.2 °F 37.4 °F 93% 29.83 in 10.0 mi NW 6.9 mph - N/A   Overcast
7:32 AM 39.2 °F 35.0 °F 37.4 °F 93% 29.84 in 10.0 mi NW 5.8 mph - N/A   Overcast
7:54 AM 39.9 °F 35.8 °F 37.9 °F 93% 29.86 in 10.0 mi NW 5.8 mph - N/A   Overcast
8:10 AM 39.2 °F 35.0 °F 37.4 °F 93% 29.87 in 10.0 mi NW 5.8 mph - N/A   Overcast
8:45 AM 41.0 °F 39.0 °F 39.2 °F 93% 29.87 in 10.0 mi NNW 3.5 mph - N/A   Overcast
8:54 AM 42.1 °F 40.2 °F 39.9 °F 92% 29.88 in 10.0 mi NW 3.5 mph - N/A   Overcast
9:31 AM 42.8 °F 38.6 °F 39.2 °F 87% 29.89 in 10.0 mi NNW 6.9 mph - N/A   Overcast
9:54 AM 43.0 °F 37.7 °F 39.0 °F 86% 29.91 in 10.0 mi NNW 9.2 mph - N/A   Overcast
10:54 AM 46.0 °F 41.4 °F 37.9 °F 73% 29.91 in 10.0 mi North 9.2 mph - N/A   Overcast
11:54 AM 45.0 °F 39.3 °F 36.0 °F 71% 29.92 in 10.0 mi North 11.5 mph 20.7 mph N/A   Overcast
12:25 PM 46.4 °F 39.8 °F 35.6 °F 66% 29.91 in 10.0 mi NNW 16.1 mph 25.3 mph N/A   Partly Cloudy
12:54 PM 46.0 °F 39.0 °F 35.1 °F 66% 29.91 in 10.0 mi North 17.3 mph 25.3 mph N/A   Clear
1:54 PM 46.0 °F 39.3 °F 34.0 °F 63% 29.90 in 10.0 mi North 16.1 mph 21.9 mph N/A   Clear
2:54 PM 46.0 °F 40.6 °F 34.0 °F 63% 29.92 in 10.0 mi NNW 11.5 mph - N/A   Clear
3:54 PM 43.0 °F 34.2 °F 33.1 °F 68% 29.93 in 10.0 mi NNW 20.7 mph - N/A   Clear
4:54 PM 41.0 °F 32.5 °F 30.2 °F 65% 29.95 in 10.0 mi NNW 17.3 mph 24.2 mph N/A   Clear
5:54 PM 37.9 °F 28.2 °F 30.0 °F 73% 30.00 in 10.0 mi NNW 18.4 mph 26.5 mph N/A   Clear
6:54 PM 37.0 °F 28.1 °F 28.9 °F 73% 30.03 in 10.0 mi NNW 15.0 mph 23.0 mph N/A   Clear
7:54 PM 36.0 °F 27.5 °F 28.9 °F 76% 30.03 in 10.0 mi NNW 12.7 mph 21.9 mph N/A   Clear
8:54 PM 35.1 °F 25.5 °F 28.0 °F 76% 30.03 in 10.0 mi NNW 15.0 mph - N/A   Clear
9:54 PM 35.1 °F 24.1 °F 28.0 °F 76% 30.04 in 10.0 mi NNW 19.6 mph - N/A   Clear
10:54 PM 34.0 °F 23.0 °F 28.0 °F 79% 30.03 in 10.0 mi NNW 18.4 mph 26.5 mph N/A   Clear
11:54 PM 33.1 °F 24.9 °F 28.0 °F 82% 30.05 in 10.0 mi NNW 10.4 mph - N/A   Clear